Location: Bonningues
(50.7927°N, 2.0150°E)
Time: 06:24:33
(UTC+00:00)

ERBS - Pass Details

Date: 08 August 2020
Orbit: 413 x 420 km, 57.0° (Epoch: 23 September)

Event Time Altitude Azimuth Distance (km) Brightness Sun altitude
Rises 22:07:53 0° 282° (WNW) 2,356 6.6 -19.2°
Reaches altitude 10° 22:10:10 10° 295° (WNW) 1,493 5.8 -19.4°
Maximum altitude 22:13:05 27° 356° (N) 833 4.4 -19.6°
Drops below altitude 10° 22:15:59 10° 57° (ENE) 1,491 5.1 -19.8°
Enters shadow 22:17:38 - 67° (ENE) 2,108 5.8 -19.9°
